Location: Morosaglia
(42.4360°N, 9.3069°E)
Time: 19:29:31
(UTC+00:00)

Cosmos 2237 - Pass Details

Date: 07 June 2020
Orbit: 844 x 858 km, 70.8° (Epoch: 11 July)

Event Time Altitude Azimuth Distance (km) Brightness Sun altitude
Exits shadow 01:54:31 22° 195° (SSW) 1,765 5.3 -15.9°
Maximum altitude 01:58:16 77° 113° (ESE) 879 4.3 -15.4°
Drops below altitude 10° 02:04:00 10° 27° (NNE) 2,495 8.0 -14.8°
Sets 02:06:28 0° 26° (NNE) 3,437 9.1 -14.5°
